Regional Weather Roundup
Issued by NWS Northern Indiana

Home | Current Version | Previous Version | Text Only | Print | Product List | Glossary Off
Versions: 1 2 3 4 5 6 7 8 9 10 11 12 13 14 15 16 17 18 19 20 21 22 23 24 25 26 27 28 29 30 31 32 33 34 35 36 37 38 39 40 41 42 43 44 45 46 47 48 49 50

000
ASUS43 KIWX 291310
RWRIWX

KIWX WEATHER ROUNDUP
NATIONAL WEATHER SERVICE NORTHERN INDIANA
900 AM EDT SAT AUG 29 2015

NOTE: "FAIR" INDICATES FEW OR NO CLOUDS BELOW 12,000 FEET WITH NO
SIGNIFICANT WEATHER AND/OR OBSTRUCTIONS TO VISIBILITY.

* THESE STATIONS ARE NOT UNDER NWS QUALITY CONTROL. THEY ALSO MAY NOT
  REPORT WEATHER SUCH AS PRECIPITATION OR FOG.

INZ001>027-291400-
NORTHERN INDIANA

CITY           SKY/WX    TMP DP  RH WIND       PRES   REMARKS
GARY*          RAIN      64  61  88 SE6       30.07R
VALPARAISO     CLOUDY    64  61  90 NE5       30.08S
MICHIGAN CITY* LGT RAIN  64  57  77 SE3       30.08S
LAPORTE*       LGT RAIN  65  65 100 E3        30.10R
KNOX*          PTSUNNY   64  61  88 SE3       30.08S
SOUTH BEND     CLOUDY    66  59  78 SE3       30.10S
ELKHART*       CLOUDY    64  59  82 CALM      30.12R
GOSHEN         PTSUNNY   65  59  81 E5        30.11R
MONTICELLO*    PTSUNNY   67  63  84 SE3       30.07S
LOGANSPORT*    CLOUDY    64  57  77 SE3       30.09S
ROCHESTER*     CLOUDY    68  63  83 CALM      30.09F
WARSAW*        CLOUDY    66  59  77 CALM      30.10F
ANGOLA*        MOSUNNY   64  55  72 CALM      30.13S
FORT WAYNE     CLOUDY    65  60  84 E3        30.12S
HUNTINGTON*    CLOUDY    64  58  81 CALM      30.11S
PERU/GRISSOM   CLOUDY    67  61  80 S6        30.08S
MARION*        CLOUDY    66  55  65 S6        30.11S

$$
INZ028>050-291400-
CENTRAL INDIANA

CITY           SKY/WX    TMP DP  RH WIND       PRES   REMARKS
LAFAYETTE      PTSUNNY   67  61  81 S3        30.07S
KOKOMO*        CLOUDY    68  55  64 S7        30.10S
MUNCIE*        MOSUNNY   68  60  75 S12G17    30.11S
INDIANAPOLIS   CLOUDY    68  61  78 S7        30.08S

$$
MIZ043>046-050>051-056>058-064>065-071>073-077>080-291400-
SOUTHWEST LOWER MICHIGAN

CITY           SKY/WX    TMP DP  RH WIND       PRES   REMARKS
BATTLE CREEK   CLOUDY    65  58  78 SE6       30.12F
BENTON HARBOR  RAIN      62  61  96 E3        30.10S FOG
COLDWATER*     CLOUDY    64  60  88 CALM      30.13S
HILLSDALE*     CLOUDY    65  61  88 SE3       30.14S
HOLLAND        LGT RAIN  63  61  93 E3        30.12R FOG
GRAND RAPIDS   LGT RAIN  62  61  96 E5        30.12S FOG
KALAMAZOO      LGT RAIN  64  59  83 CALM      30.12S
STURGIS*       CLOUDY    64  61  88 SE5       30.11S
THREE RIVERS*  FAIR      64  61  92 CALM      30.12S

$$
OHZ001>008-015>018-024>025-291400-
NORTHWEST OHIO

CITY           SKY/WX    TMP DP  RH WIND       PRES   REMARKS
WAUSEON*       PTSUNNY   64  64 100 SE3       30.14S
DEFIANCE       CLOUDY    66  59  78 CALM      30.13S
FINDLAY        CLOUDY    65  59  81 SE6       30.13S
TOLEDO EXPRESS CLOUDY    64  60  87 CALM      30.14S
TOLEDO METCALF PTSUNNY   66  59  78 CALM      30.15S
LIMA           PTSUNNY   67  59  75 SE7       30.13F

$$
AND FOR LAKE MICHIGAN COASTAL AND OPEN LAKE BUOY OBSERVATIONS

STATION/POSITION TEMP    WIND        PRES    VSBY  WAVE
                 AIR SEA DIR/SP/G                  HT/PER
                 (F)     (DEG/KT/KT) (MB)    (MI)  (FT/S)
MICHIGAN CITY     66     130/ 10/ 12   N/A
SAINT JOSEPH      63      CALM  /  2 1019.6R
SOUTH LAKE BUOY   67 68  210/  4/  8 1018.5R         2/ 3
4 MI NW BRIDGMAN  66 70  140/  6/  8   N/A           1
MICHIGAN CITY     66 70  170/ 10/ 12   N/A           1

$$
&&


USA.gov is the U.S. government's official web portal to all federal, state and local government web resources and services.